Location: Hradec Kralove
(50.2170°N, 15.8330°E)
Time: 17:51:15
(UTC+01:00)

Transit 4A - All Passes

Search period start: 29 January 2023 00:00
Search period end: 08 February 2023 00:00
Orbit: 871 x 973 km, 66.8° (Epoch: 28 January)

Date Brightness Start Highest point End Pass type
(mag) Time Alt. Az. Time Alt. Az. Time Alt. Az.
29 Jan - 01:01:40 10° NNW 01:06:06 21° NNE 01:10:37 10° ENE night (unlit)
29 Jan - 02:47:49 10° NNW 02:53:41 59° NE 02:59:38 10° SE visible
29 Jan - 04:34:32 10° NW 04:39:46 33° WSW 04:45:06 10° S visible
29 Jan - 18:00:24 10° SSE 18:05:13 28° ESE 18:10:03 10° NE visible
29 Jan - 19:45:21 10° SW 19:51:09 66° NW 19:56:58 10° NNE visible
29 Jan - 21:34:05 10° WNW 21:38:36 22° NNW 21:43:09 10° NNE visible
29 Jan - 23:23:46 10° NW 23:27:12 16° N 23:30:41 10° NE night (unlit)
30 Jan - 01:10:53 10° NNW 01:15:43 25° NNE 01:20:37 10° E night (unlit)
30 Jan - 02:57:02 10° NW 03:02:59 78° NE 03:09:03 10° SE night (unlit)
30 Jan - 04:44:10 10° WNW 04:48:45 23° WSW 04:53:25 10° SSW visible
30 Jan - 18:08:53 10° S 18:14:13 39° ESE 18:19:36 10° NE visible
30 Jan - 19:54:50 10° WSW 20:00:28 49° NW 20:06:10 10° NNE visible
30 Jan - 21:44:06 10° WNW 21:48:15 19° NNW 21:52:26 10° NNE visible
30 Jan - 23:33:22 10° NNW 23:36:57 16° N 23:40:34 10° NE night (unlit)
31 Jan - 01:20:04 10° NNW 01:25:16 31° NE 01:30:32 10° E night (unlit)
31 Jan - 03:06:15 10° NW 03:12:12 79° SW 03:18:16 10° SSE night (unlit)
31 Jan - 04:54:08 10° WNW 04:57:40 16° WSW 05:01:14 10° SW night (unlit)
31 Jan - 18:17:39 10° SSW 18:23:18 55° ESE 18:28:59 10° NE visible
31 Jan - 20:04:29 10° WSW 20:09:53 38° NW 20:15:20 10° NNE visible
31 Jan - 21:54:07 10° NW 21:57:56 17° NNW 22:01:47 10° NNE visible
31 Jan - 23:42:49 10° NNW 23:46:41 18° NNE 23:50:35 10° NE night (unlit)
01 Feb - 01:29:14 10° NNW 01:34:44 38° NE 01:40:20 10° ESE night (unlit)
01 Feb - 03:15:33 10° NW 03:21:22 58° WSW 03:27:18 10° SSE night (unlit)
01 Feb - 05:05:19 10° W 05:06:31 11° W 05:07:42 10° WSW night (unlit)
01 Feb - 16:43:58 10° SE 16:47:04 15° ESE 16:50:11 10° ENE daylight
01 Feb - 18:26:38 10° SSW 18:32:26 77° SE 18:38:17 10° NE visible
01 Feb - 20:14:15 10° W 20:19:22 31° NW 20:24:31 10° NNE visible
01 Feb - 22:04:05 10° NW 22:07:40 16° N 22:11:16 10° NNE visible
01 Feb - 23:52:10 10° NNW 23:56:22 20° NNE 00:00:38 10° ENE night (unlit)
02 Feb - 01:38:24 10° NNW 01:44:09 49° NE 01:50:01 10° ESE night (unlit)
02 Feb - 03:24:55 10° NW 03:30:27 41° WSW 03:36:06 10° S night (unlit)
02 Feb - 16:51:40 10° SSE 16:55:58 22° ESE 17:00:16 10° ENE daylight
02 Feb - 18:35:49 10° SW 18:41:39 80° NW 18:47:32 10° NE visible
02 Feb - 20:24:09 10° W 20:28:54 25° NNW 20:33:43 10° NNE visible
02 Feb - 22:13:57 10° NW 22:17:25 16° N 22:20:54 10° NE visible
03 Feb - 00:01:26 10° NNW 00:06:01 23° NNE 00:10:40 10° ENE night (unlit)
03 Feb - 01:47:35 10° NNW 01:53:30 65° NE 01:59:31 10° SE night (unlit)
03 Feb - 03:34:25 10° NW 03:39:29 29° WSW 03:44:38 10° S night (unlit)
03 Feb - 16:59:54 10° S 17:04:55 31° ESE 17:09:57 10° NE daylight
03 Feb - 18:45:12 10° SW 18:50:57 59° NW 18:56:45 10° NNE visible
03 Feb - 20:34:07 10° WNW 20:38:31 21° NNW 20:42:57 10° NNE visible
03 Feb - 22:23:41 10° NNW 22:27:10 16° N 22:30:41 10° NE visible
04 Feb - 00:10:38 10° NNW 00:15:37 27° NNE 00:20:39 10° E night (unlit)
04 Feb - 01:56:48 10° NW 02:02:45 86° NE 02:08:52 10° SE night (unlit)
04 Feb - 03:44:08 10° WNW 03:48:26 21° WSW 03:52:48 10° SSW night (unlit)
04 Feb - 17:08:29 10° S 17:13:56 44° ESE 17:19:26 10° NE daylight
04 Feb - 18:54:44 10° WSW 19:00:18 45° NW 19:05:56 10° NNE visible
04 Feb - 20:44:09 10° WNW 20:48:10 19° NNW 20:52:15 10° NNE visible
04 Feb - 22:33:13 10° NNW 22:36:55 17° N 22:40:37 10° NE visible
05 Feb - 00:19:49 10° NNW 00:25:07 33° NE 00:30:32 10° E night (unlit)
05 Feb - 02:06:02 10° NW 02:11:58 71° WSW 02:18:02 10° SSE night (unlit)
05 Feb - 03:54:18 10° WNW 03:57:20 14° WSW 04:00:23 10° SW night (unlit)
05 Feb - 15:36:18 10° ESE 15:37:53 11° E 15:39:29 10° E daylight
05 Feb - 17:17:19 10° SSW 17:23:02 62° ESE 17:28:48 10° NE visible
05 Feb - 19:04:25 10° WSW 19:09:44 35° NW 19:15:06 10° NNE visible
05 Feb - 20:54:09 10° NW 20:57:53 17° NNW 21:01:39 10° NNE visible
05 Feb - 22:42:38 10° NNW 22:46:37 18° NNE 22:50:39 10° ENE visible
06 Feb - 00:28:59 10° NNW 00:34:35 41° NE 00:40:18 10° ESE night (unlit)
06 Feb - 02:15:21 10° NW 02:21:06 52° WSW 02:26:59 10° SSE night (unlit)
06 Feb - 15:43:08 10° SE 15:46:44 17° ESE 15:50:19 10° ENE daylight
06 Feb - 17:26:23 10° SSW 17:32:12 85° SE 17:38:04 10° NE visible
06 Feb - 19:14:14 10° W 19:19:14 29° NNW 19:24:18 10° NNE visible
06 Feb - 21:04:05 10° NW 21:07:37 16° N 21:11:10 10° NNE visible
06 Feb - 22:51:57 10° NNW 22:56:17 21° NNE 23:00:42 10° ENE visible
07 Feb - 00:38:09 10° NNW 00:43:58 54° NE 00:49:55 10° ESE night (unlit)
07 Feb - 02:24:46 10° NW 02:30:10 37° WSW 02:35:42 10° S night (unlit)
07 Feb - 15:51:03 10° SSE 15:55:38 25° ESE 16:00:14 10° ENE daylight
07 Feb - 17:35:38 10° SW 17:41:26 72° NW 17:47:19 10° NE visible
07 Feb - 19:24:09 10° W 19:28:48 24° NNW 19:33:30 10° NNE visible
07 Feb - 21:13:54 10° NW 21:17:22 16° N 21:20:52 10° NE visible
07 Feb - 23:01:11 10° NNW 23:05:55 24° NNE 23:10:43 10° E visible
